Vertical_Velocity
1 -3 -5 -1 1 -3 -4 -3 7 1 11 -0 -2 1 1 1 -2 -6 -7 15 4 1 9 2 2 0 2 -10 8 9 11 -7 -13 -1 -5 -3 3 4 0 6 4 -1 -7 0 3
-3 -2 -4 -4 -3 1 -5 -6 -2 2 0 -5 -2 -1 1 2 -2 -7 12 3 3 3 8 1 1 1 -4 4 -8 10 -3 -17 -4 17 -2 4 8 1 3 0 8 2 -2 -2 -2
-4 -0 -2 -0 -4 -4 -0 -4 -3 1 3 -1 -5 -2 -1 -2 -0 10 -1 -1 3 3 5 4 1 3 0 3 -1 5 -35 12 10 -1 -13 2 6 3 -1 2 8 -6 -6 -4 -4
-1 -1 -5 -4 -5 -5 -1 -0 -2 1 4 2 -0 -2 -1 1 -2 -2 8 2 -1 6 -1 4 -0 -2 0 -10 4 -9 11 -2 -9 -11 -11 1 9 8 -1 -5 12 9 21 6 -1
1 -4 -5 -2 -4 -4 0 4 -1 1 5 -2 -1 0 -1 1 10 4 4 -2 -4 -3 -4 5 1 4 1 5 2 6 -8 17 27 -6 -6 2 -10 -6 -3 5 8 7 1 -0 -1
-0 -4 -2 -3 -5 -5 -1 2 0 -3 2 -0 -3 -0 1 3 -1 -2 2 6 2 0 -2 -4 -1 8 13 2 5 11 8 5 -15 -15 4 -11 -15 -0 3 -3 3 7 10 0 -1
3 -0 -6 -1 -4 -5 -5 -4 -2 -6 -2 -0 0 -0 -2 -5 -1 -1 -3 -7 1 -5 -5 -1 6 -2 3 4 9 -2 -3 -1 -2 -16 -10 2 -7 -36 -3 1 12 4 4 9 3
1 -3 0 -2 0 -4 -4 -1 -7 -5 -6 -3 4 2 -0 -3 1 2 9 2 1 1 -5 8 8 9 6 4 -3 -1 13 -3 -6 -0 -6 -0 -18 -10 -6 2 18 4 4 2 3
-1 -1 1 0 -1 -2 -1 1 -2 -1 -1 -4 -0 -0 0 -0 -0 -0 -10 9 -3 2 6 5 15 -2 3 5 6 2 -9 -5 6 -19 4 -4 -5 -26 4 -8 3 2 1 1 0
-1 -1 -3 1 0 1 -1 -1 0 1 -1 -1 1 -0 2 1 2 -7 -1 3 5 5 20 5 30 -5 0 -6 -33 -15 2 5 -7 -15 -1 11 2 -16 -18 -14 -3 7 4 3 3
-2 1 -2 -1 2 1 1 -2 -2 -1 2 0 -2 -3 0 1 -10 12 -8 9 3 3 1 -1 22 -53 -14 13 -7 5 -2 -3 2 3 6 7 12 -13 27 7 0 -1 -3 -4 4
1 -1 1 0 1 2 0 -1 -2 -1 -3 -0 1 1 0 4 -4 6 -1 2 -1 -1 15 21 -19 15 5 4 -2 1 3 3 4 1 2 4 -1 -4 -13 1 2 -0 0 -0 -4
1 -0 -1 1 3 -0 2 -1 -1 -3 -2 1 -1 0 -1 1 -7 -2 4 3 -6 11 -7 -2 -7 1 3 3 -2 3 1 -3 -5 1 11 6 -4 -11 -6 -11 1 0 1 1 3
2 -1 -0 1 3 2 0 1 2 -0 0 5 -3 -3 -4 -4 -4 -2 -4 8 -21 -22 3 5 -6 -1 3 0 2 0 2 7 4 4 -2 2 -8 -19 3 -3 -9 -3 -1 1 -0
3 2 1 3 -1 4 -0 -1 -3 2 -5 0 -1 1 -2 2 -1 0 -7 23 -1 14 6 2 -2 -4 1 -4 3 -1 2 2 3 3 3 2 3 -20 1 -9 -23 -1 -0 0 -3
-1 -1 0 2 3 3 3 1 -2 2 -6 9 -7 1 -2 -1 4 5 -1 -7 6 12 26 9 2 3 -6 -2 4 -4 2 2 3 2 3 -2 3 -17 -11 2 1 -7 1 2 2
-1 1 -5 -1 -1 3 2 1 -3 -5 3 -4 11 1 3 8 4 11 -5 -25 -16 4 6 3 2 -0 1 2 3 1 4 -0 -1 2 -5 3 -1 -27 5 1 -3 -2 5 6 4
2 -2 -3 2 2 -1 5 -1 -7 -3 0 -3 2 -1 12 1 15 -16 -13 8 -1 -5 7 0 13 -1 -2 -0 -8 -0 1 -6 -4 -2 -3 -0 -11 -24 -8 -4 -0 1 3 0 3
2 3 -1 -2 -4 2 0 2 -1 -0 -1 4 -4 2 0 2 4 10 13 -5 2 -3 3 -5 3 1 5 2 -0 -7 1 4 -3 0 -2 -5 -7 -9 -7 -3 -3 1 -5 1 3
2 2 -0 -1 1 -2 -1 -1 -1 3 -1 2 0 -2 -1 -2 -3 -3 2 -1 -6 2 8 0 -7 -1 3 -3 2 2 -6 1 1 -3 -1 -2 -3 -17 -3 -3 0 -6 -4 0 0
1 1 0 1 1 2 -3 -2 -2 -0 3 -5 3 -3 -0 1 1 0 1 -3 1 1 -1 -3 -0 1 2 -3 -3 0 3 -0 1 2 -3 -1 -5 -3 -1 -1 4 5 4 5 2
1 -0 2 1 3 -0 -0 -0 -2 -2 1 -3 -3 4 1 3 -1 -2 1 4 -3 3 2 0 1 -1 1 -7 -1 0 -4 3 -1 -3 1 1 -12 -9 -7 -1 -1 5 7 4 3
-4 0 0 2 4 -2 1 -2 -1 -4 4 2 -2 1 2 -0 3 -0 -1 -1 3 1 1 1 1 -3 0 -2 -1 3 -2 4 1 3 -3 -1 -10 -3 1 -1 2 -3 0 -2 3
-1 -3 1 1 0 2 4 3 0 1 -3 3 -3 -2 3 -1 -2 0 2 2 0 1 2 1 -1 -3 -13 -3 -5 -10 -9 -1 2 6 -7 -13 -8 -5 -4 -1 -2 -1 -2 -0 4
-4 -3 -3 -1 1 -2 -3 1 -0 -3 -2 1 4 -3 0 2 -2 -1 -1 -3 -3 -2 -2 -1 -0 1 -1 -3 -3 1 2 -1 -5 -8 4 -9 -10 -4 -1 1 -1 0 2 2 -1
-1 -1 -1 -1 -3 -3 -1 -1 -3 1 -1 0 4 3 -2 -2 0 1 3 1 -2 -0 0 0 -2 1 1 2 2 -0 1 2 5 6 2 2 -8 -4 -4 -15 -1 -2 -2 0 1
-3 -1 -1 -1 2 -1 -2 1 2 -1 -1 1 0 1 3 -1 0 0 -2 2 2 -0 3 2 0 2 -1 1 3 -4 -2 -1 3 1 7 -14 3 1 -2 3 -3 -1 -3 -0 3
Height
3074 3068 3064 3057 3050 3045 3042 3039 3038 3036 3035 3037 3036 3036 3037 3038 3040 3045 3049 3058 3063 3071 3075 3079 3084 3089 3094 3101 3107 3111 3119 3120 3125 3130 3135 3139 3142 3143 3145 3149 3151 3153 3156 3159 3162
3070 3066 3061 3054 3047 3040 3036 3033 3031 3030 3030 3031 3032 3032 3032 3034 3036 3038 3045 3051 3057 3065 3071 3074 3080 3085 3090 3096 3102 3103 3112 3112 3123 3128 3131 3136 3140 3139 3143 3146 3150 3152 3154 3157 3160
3068 3064 3058 3051 3044 3038 3032 3028 3025 3024 3025 3026 3028 3028 3029 3029 3032 3035 3040 3046 3052 3059 3067 3071 3076 3083 3089 3093 3097 3101 3104 3113 3119 3122 3126 3134 3136 3138 3139 3144 3150 3152 3154 3156 3159
3066 3061 3056 3050 3042 3036 3031 3026 3023 3021 3021 3023 3024 3026 3026 3027 3032 3031 3036 3042 3047 3055 3062 3067 3072 3078 3083 3088 3094 3099 3103 3111 3114 3121 3126 3131 3133 3136 3136 3141 3148 3149 3152 3154 3157
3064 3059 3055 3048 3040 3034 3030 3026 3023 3021 3020 3021 3022 3023 3024 3025 3028 3030 3031 3034 3041 3051 3057 3064 3069 3075 3080 3086 3093 3097 3102 3108 3111 3116 3122 3124 3130 3134 3135 3137 3142 3147 3149 3152 3155
3062 3057 3052 3046 3040 3034 3029 3026 3023 3022 3021 3022 3023 3023 3023 3024 3024 3028 3030 3034 3038 3044 3055 3061 3066 3074 3079 3083 3091 3094 3099 3103 3108 3113 3119 3121 3126 3129 3132 3135 3139 3144 3148 3150 3153
3061 3055 3051 3045 3040 3034 3030 3027 3024 3023 3022 3023 3024 3023 3023 3024 3022 3023 3028 3031 3035 3040 3052 3060 3067 3073 3076 3081 3088 3093 3097 3100 3106 3111 3115 3119 3118 3120 3128 3131 3140 3141 3144 3148 3151
3060 3054 3049 3044 3039 3034 3029 3027 3026 3025 3024 3024 3024 3024 3023 3023 3023 3022 3025 3029 3032 3038 3050 3059 3065 3073 3077 3081 3087 3093 3096 3099 3103 3111 3114 3117 3117 3123 3125 3128 3137 3141 3143 3145 3148
3058 3053 3048 3042 3038 3035 3029 3026 3026 3026 3025 3024 3024 3024 3023 3023 3023 3023 3022 3026 3032 3038 3045 3057 3062 3069 3074 3078 3085 3091 3092 3095 3102 3108 3113 3114 3115 3120 3123 3126 3133 3139 3142 3143 3145
3057 3052 3047 3041 3036 3035 3030 3026 3024 3024 3024 3024 3023 3025 3024 3023 3022 3022 3022 3026 3029 3037 3047 3054 3057 3065 3070 3075 3071 3073 3082 3088 3094 3102 3110 3112 3115 3118 3122 3127 3131 3136 3138 3141 3142
3055 3050 3045 3040 3035 3032 3029 3026 3026 3024 3022 3022 3022 3022 3022 3022 3022 3022 3023 3023 3029 3035 3042 3051 3052 3053 3057 3070 3074 3080 3084 3088 3093 3100 3104 3108 3113 3117 3121 3125 3127 3131 3134 3136 3139
3053 3048 3043 3039 3034 3030 3027 3025 3024 3023 3021 3019 3019 3020 3021 3020 3021 3022 3025 3028 3031 3037 3043 3048 3047 3058 3066 3074 3077 3082 3087 3091 3097 3101 3105 3106 3110 3115 3119 3120 3123 3126 3129 3131 3133
3050 3047 3042 3037 3033 3029 3025 3023 3022 3021 3020 3020 3019 3019 3020 3022 3022 3023 3026 3029 3032 3037 3042 3046 3049 3058 3066 3073 3077 3082 3086 3091 3094 3100 3102 3105 3107 3111 3112 3112 3116 3118 3122 3124 3126
3048 3045 3041 3037 3034 3029 3025 3023 3021 3020 3020 3023 3021 3021 3021 3021 3023 3024 3028 3033 3035 3041 3045 3048 3051 3059 3066 3073 3077 3081 3087 3092 3094 3098 3099 3104 3102 3100 3102 3104 3108 3112 3116 3119 3121
3045 3043 3041 3035 3033 3029 3027 3022 3021 3021 3024 3025 3023 3022 3021 3022 3025 3026 3027 3027 3036 3039 3046 3045 3048 3058 3066 3073 3078 3083 3087 3091 3093 3097 3100 3101 3104 3092 3095 3095 3098 3102 3108 3113 3117
3044 3041 3040 3037 3033 3029 3026 3023 3023 3023 3025 3025 3024 3023 3023 3023 3025 3027 3030 3035 3035 3036 3036 3041 3052 3061 3067 3074 3080 3083 3088 3092 3094 3097 3097 3097 3100 3085 3086 3088 3093 3099 3102 3106 3110
3042 3040 3038 3036 3033 3030 3027 3025 3025 3025 3030 3030 3026 3025 3024 3025 3027 3029 3033 3040 3040 3041 3040 3047 3056 3062 3069 3075 3079 3083 3087 3091 3097 3097 3093 3093 3096 3079 3083 3085 3089 3094 3098 3101 3103
3041 3039 3037 3035 3033 3031 3028 3027 3025 3031 3029 3029 3030 3029 3026 3028 3031 3033 3032 3037 3042 3041 3042 3049 3063 3063 3068 3072 3075 3081 3085 3085 3091 3092 3089 3091 3080 3074 3079 3084 3086 3088 3090 3093 3096
3040 3037 3036 3035 3033 3031 3032 3028 3030 3030 3032 3031 3032 3032 3032 3032 3033 3034 3036 3035 3039 3045 3050 3053 3058 3062 3065 3070 3078 3079 3082 3085 3086 3088 3089 3083 3076 3075 3076 3078 3080 3083 3085 3088 3091
3040 3037 3035 3034 3033 3032 3032 3031 3031 3031 3031 3032 3032 3035 3034 3035 3037 3039 3041 3043 3045 3047 3049 3050 3055 3061 3065 3069 3073 3076 3081 3084 3085 3090 3089 3078 3075 3071 3070 3071 3074 3078 3081 3083 3086
3039 3036 3034 3033 3032 3032 3031 3032 3032 3033 3033 3033 3035 3036 3038 3037 3038 3040 3043 3045 3046 3047 3049 3052 3055 3062 3064 3063 3067 3073 3074 3078 3081 3080 3078 3077 3070 3070 3067 3067 3071 3074 3077 3080 3083
3038 3036 3033 3032 3034 3031 3032 3032 3034 3034 3034 3034 3036 3037 3039 3040 3039 3039 3041 3043 3046 3048 3050 3052 3053 3058 3061 3063 3066 3069 3070 3074 3075 3075 3075 3073 3067 3068 3067 3066 3067 3071 3074 3077 3080
3037 3035 3032 3032 3032 3031 3031 3032 3033 3035 3037 3036 3036 3038 3039 3040 3042 3041 3042 3043 3045 3048 3050 3051 3052 3056 3061 3064 3062 3063 3064 3067 3070 3071 3068 3070 3066 3067 3068 3066 3066 3069 3073 3075 3077
3035 3033 3031 3030 3030 3031 3032 3032 3034 3034 3037 3037 3038 3039 3039 3040 3041 3041 3042 3044 3045 3047 3049 3050 3050 3052 3054 3053 3054 3056 3058 3061 3065 3065 3064 3060 3061 3065 3067 3067 3067 3067 3070 3073 3074
3034 3032 3029 3028 3028 3030 3033 3034 3034 3035 3035 3037 3037 3038 3039 3039 3041 3042 3043 3044 3046 3047 3048 3050 3050 3051 3051 3050 3050 3050 3052 3054 3054 3058 3058 3057 3057 3061 3064 3065 3065 3066 3067 3069 3070
3033 3031 3028 3027 3027 3028 3028 3029 3030 3034 3035 3036 3037 3037 3039 3040 3040 3042 3044 3044 3046 3047 3048 3049 3049 3049 3049 3049 3048 3048 3047 3047 3050 3052 3052 3052 3050 3057 3060 3061 3061 3062 3064 3066 3068
3030 3028 3027 3027 3026 3028 3029 3029 3029 3031 3034 3035 3036 3037 3038 3039 3040 3041 3042 3043 3043 3044 3045 3047 3047 3047 3047 3047 3046 3045 3042 3042 3043 3044 3046 3045 3044 3051 3055 3057 3058 3059 3060 3063 3065